This is the latest recevied weather packets stored in our database for station/object N5DGC. If no packets are shown the sender has not sent any weather packets the latest 10 day(s).
| Time | Temp. | Humidity | Pressure | Rain* | Wind** | Luminosity | Snow |
|---|---|---|---|---|---|---|---|
| 1777569169 | 21.67° C | 18% | 1233.4 hPa | 0 mm | - | 900 W/m² | - |
| 1777568865 | 20.56° C | 19% | 1233.5 hPa | 0 mm | - | 900 W/m² | - |
| 1777568563 | 20° C | 17% | 1233.8 hPa | 0 mm | - | 915 W/m² | - |
| 1777568259 | 20.56° C | 17% | 1234 hPa | 0 mm | - | 500 W/m² | - |
| 1777567956 | 20.56° C | 17% | 1233.8 hPa | 0 mm | - | 971 W/m² | - |
| 1777567652 | 20° C | 16% | 1233.6 hPa | 0 mm | - | 842 W/m² | - |
| 1777567350 | 18.89° C | 17% | 1233.9 hPa | 0 mm | - | 750 W/m² | - |
| 1777567048 | 18.89° C | 17% | 1233.8 hPa | 0 mm | - | 393 W/m² | - |
| 1777566745 | 19.44° C | 18% | 1233.9 hPa | 0 mm | - | 1006 W/m² | - |
| 1777566443 | 20.56° C | 17% | 1234 hPa | 0 mm | - | 782 W/m² | - |
| 1777566140 | 20.56° C | 19% | 1234 hPa | 0 mm | - | 719 W/m² | - |
| 1777565835 | 20° C | 20% | 1234.1 hPa | 0 mm | - | 847 W/m² | - |
| 1777565532 | 19.44° C | 19% | 1233.9 hPa | 0 mm | - | 635 W/m² | - |
| 1777565229 | 19.44° C | 19% | 1233.9 hPa | 0 mm | - | 781 W/m² | - |
| 1777564925 | 18.89° C | 19% | 1234.1 hPa | 0 mm | - | 755 W/m² | - |
| 1777564620 | 17.78° C | 19% | 1234.1 hPa | 0 mm | - | 689 W/m² | - |
| 1777564316 | 17.78° C | 20% | 1234.1 hPa | 0 mm | - | 342 W/m² | - |
| 1777564012 | 17.78° C | 18% | 1234 hPa | 0 mm | - | 564 W/m² | - |
| 1777563708 | 17.78° C | 22% | 1233.9 hPa | 0 mm | - | 242 W/m² | - |
| 1777563404 | 18.33° C | 24% | 1233.9 hPa | 0 mm | - | 272 W/m² | - |
| 1777563099 | 17.78° C | 23% | 1234.1 hPa | 0 mm | - | 266 W/m² | - |
| 1777562795 | 17.22° C | 26% | 1234.1 hPa | 0 mm | - | 399 W/m² | - |
| 1777562493 | 16.67° C | 27% | 1234 hPa | 0 mm | - | 415 W/m² | - |
| 1777562190 | 16.67° C | 28% | 1234.1 hPa | 0 mm | - | 358 W/m² | - |
| 1777561888 | 16.67° C | 28% | 1234.2 hPa | 0 mm | - | 222 W/m² | - |
* Rain latest hour (hover to see other rain measurements)
** Current wind speed in m/s (hover to see current wind gust speed)